User: anonymous   Login
Location: Endfield
(51.6667°N, 0.0667°W)
Time: 09:32:30
(UTC+00:00)
Language:

Cosmos 1680 Rocket - Orbit

View from above orbital plane
View from above orbital plane
View from above satellite
View from above satellite

Ground track
Ground track

The orbit data is extracted from the following two-line orbital elements,

1 16012U 85079B   24198.08873245  .00000427  00000-0  15244-3 0  9992
2 16012  74.0589  71.1519 0013961  46.3279 313.9029 14.37070693 35094
Epoch (UTC): 16 July 2024 02:07:46
Eccentricity: 0.0013961
inclination: 74.0589°
perigee height: 758 km
apogee height: 778 km
right ascension of ascending node: 71.1519°
argument of perigee: 46.3279°
revolutions per day: 14.37070693
mean anomaly at epoch: 313.9029°
orbit number at epoch: 3509

The dashed part of the orbit path shows where the satellite is in the earth's shadow,  

DLR